Total_Precipitation_Accumulation
1.88 2.14 1.69 1.06 0.87 0.77 0.72 0.60 0.46 0.37 0.42 0.59 0.56 0.48 0.56 0.57 0.61 0.61 0.62 0.68 0.75 0.96 1.13 1.37 1.69 2.07 2.39 2.59 2.91 3.09 3.35 3.62 3.74 3.70 3.46 3.28 3.16 3.22 3.11 2.78 2.48 2.42 2.29 2.16
1.84 1.62 0.92 0.68 0.76 0.86 0.88 0.81 0.56 0.40 0.36 0.55 0.58 0.51 0.54 0.57 0.60 0.60 0.63 0.63 0.68 0.80 0.99 1.24 1.64 1.84 2.07 2.31 2.50 2.81 2.95 3.31 3.44 3.34 3.34 3.24 3.23 3.26 3.26 3.09 2.83 2.71 2.59 2.40
1.37 0.99 0.74 0.83 0.99 1.07 0.92 0.78 0.65 0.58 0.51 0.61 0.72 0.70 0.56 0.56 0.54 0.49 0.51 0.51 0.61 0.70 0.82 1.03 1.39 1.68 1.81 2.06 2.33 2.44 2.61 2.89 3.23 3.35 3.55 3.69 3.69 3.49 3.30 3.18 3.09 2.91 2.85 2.73
1.17 0.82 0.87 0.95 0.96 1.02 0.96 0.58 0.64 0.70 0.92 0.93 0.77 0.98 0.67 0.55 0.50 0.48 0.50 0.49 0.57 0.66 0.75 0.90 1.03 1.31 1.52 1.71 2.10 2.41 2.61 2.80 3.02 3.43 3.51 3.45 3.34 3.11 2.87 2.93 3.03 3.03 2.96 2.92
1.22 0.89 1.01 1.05 0.73 0.80 0.86 0.60 0.70 0.82 1.02 1.05 0.73 0.86 0.69 0.48 0.50 0.51 0.52 0.54 0.65 0.77 0.83 0.88 0.94 1.09 1.27 1.45 1.83 2.20 2.48 2.83 3.08 3.25 3.35 3.43 3.25 3.00 2.93 2.93 2.95 2.89 2.84 2.85
0.90 0.89 1.10 0.98 0.65 0.74 0.94 0.98 1.07 1.16 1.53 1.55 0.69 0.70 0.69 0.59 0.61 0.57 0.55 0.58 0.71 0.82 0.86 0.85 0.92 1.06 1.22 1.34 1.56 1.94 2.23 2.41 2.73 3.05 3.13 3.19 3.18 3.13 3.03 2.86 2.81 2.84 2.83 2.82
1.15 1.02 1.02 1.00 1.07 1.12 1.38 1.98 2.63 2.59 2.28 1.25 0.47 0.56 0.67 0.62 0.65 0.68 0.69 0.70 0.76 0.80 0.82 0.83 0.91 1.05 1.24 1.39 1.50 1.64 1.85 2.01 2.24 2.53 2.73 2.79 2.93 3.03 2.89 2.75 2.60 2.60 2.62 2.63
1.29 1.27 0.99 1.15 1.34 1.48 1.43 1.71 2.06 1.74 1.10 0.64 0.46 0.56 0.64 0.61 0.64 0.66 0.70 0.69 0.70 0.76 0.81 0.82 0.84 0.92 1.07 1.27 1.45 1.50 1.60 1.73 1.92 2.09 2.26 2.46 2.64 2.84 2.83 2.74 2.54 2.45 2.41 2.39
1.17 1.08 0.75 0.91 0.97 1.07 1.30 1.31 1.19 1.48 0.94 0.65 0.55 0.50 0.49 0.44 0.46 0.55 0.61 0.61 0.67 0.76 0.79 0.80 0.80 0.83 0.96 1.10 1.29 1.39 1.48 1.59 1.68 1.82 1.98 2.18 2.32 2.44 2.50 2.58 2.52 2.45 2.38 2.33
1.21 1.23 0.84 0.90 1.14 1.11 1.07 1.09 1.35 1.89 1.52 0.93 0.56 0.44 0.59 0.57 0.54 0.59 0.62 0.68 0.77 0.81 0.77 0.76 0.79 0.85 0.95 1.00 1.13 1.31 1.41 1.48 1.51 1.60 1.70 1.83 2.01 2.19 2.27 2.36 2.32 2.28 2.30 2.32
1.13 1.43 1.10 1.14 1.38 1.14 1.02 1.29 1.53 1.56 1.26 1.12 0.83 0.71 0.72 0.68 0.64 0.67 0.68 0.73 0.81 0.85 0.83 0.82 0.85 0.94 1.03 1.01 1.08 1.26 1.37 1.49 1.53 1.54 1.57 1.61 1.68 1.82 1.98 2.11 2.17 2.12 2.17 2.23
1.08 1.47 1.22 0.97 0.81 0.76 0.89 1.01 1.27 1.70 1.28 0.94 0.90 0.88 0.71 0.67 0.64 0.64 0.67 0.71 0.76 0.80 0.83 0.88 0.94 0.94 0.97 1.07 1.15 1.24 1.32 1.45 1.56 1.60 1.60 1.61 1.63 1.65 1.75 1.82 1.98 2.02 2.10 2.11
1.37 1.72 1.51 1.24 1.09 0.98 1.02 0.86 0.97 1.34 1.53 1.18 1.05 0.89 0.65 0.56 0.57 0.59 0.63 0.68 0.76 0.83 0.84 0.84 0.92 0.98 0.97 1.04 1.21 1.30 1.35 1.42 1.49 1.59 1.65 1.63 1.58 1.53 1.56 1.65 1.76 1.82 1.90 1.94
1.54 1.65 1.37 1.22 1.10 1.01 0.91 0.72 0.84 1.49 1.80 1.13 0.82 0.75 0.61 0.56 0.61 0.61 0.63 0.73 0.81 0.85 0.84 0.82 0.88 0.95 0.98 1.00 1.11 1.20 1.30 1.31 1.42 1.54 1.64 1.68 1.64 1.58 1.51 1.57 1.65 1.71 1.75 1.81
1.37 1.56 1.01 0.74 0.60 0.66 0.69 0.58 0.70 1.11 1.16 1.17 0.78 0.66 0.72 0.72 0.73 0.68 0.67 0.68 0.72 0.78 0.80 0.82 0.85 0.89 0.93 0.89 0.90 1.00 1.12 1.21 1.27 1.43 1.59 1.64 1.69 1.76 1.77 1.68 1.63 1.63 1.65 1.73
1.07 1.34 1.01 0.76 0.51 0.50 0.54 0.47 0.54 0.68 0.74 0.81 0.66 0.68 0.61 0.61 0.59 0.59 0.63 0.64 0.67 0.76 0.79 0.77 0.78 0.85 0.88 0.87 0.88 0.90 0.97 1.09 1.14 1.24 1.38 1.48 1.58 1.71 1.87 1.89 1.81 1.74 1.66 1.67
0.95 1.13 1.21 0.82 0.46 0.62 0.77 0.65 0.64 0.69 0.71 0.78 0.84 0.76 0.57 0.57 0.62 0.72 0.73 0.68 0.67 0.71 0.77 0.75 0.76 0.82 0.81 0.81 0.85 0.89 0.89 1.00 1.09 1.11 1.15 1.27 1.44 1.54 1.67 1.87 1.96 1.88 1.81 1.82
0.80 1.02 1.35 1.01 0.73 0.94 0.71 0.48 0.50 0.60 0.68 0.71 0.72 0.60 0.52 0.57 0.64 0.68 0.71 0.73 0.69 0.66 0.70 0.72 0.76 0.80 0.76 0.75 0.79 0.82 0.82 0.89 1.03 1.10 1.15 1.26 1.35 1.44 1.60 1.79 1.94 2.01 1.99 2.03
0.53 0.99 1.49 1.24 0.96 0.62 0.38 0.32 0.49 0.63 0.68 0.55 0.52 0.47 0.41 0.40 0.44 0.53 0.59 0.64 0.70 0.69 0.68 0.71 0.77 0.82 0.76 0.75 0.82 0.83 0.80 0.86 0.95 1.04 1.12 1.19 1.30 1.38 1.50 1.68 1.84 1.94 1.99 2.05
0.54 0.91 1.59 1.40 1.14 0.70 0.46 0.26 0.31 0.54 0.80 0.44 0.40 0.43 0.41 0.39 0.55 0.61 0.59 0.62 0.61 0.64 0.66 0.70 0.74 0.74 0.73 0.80 0.85 0.87 0.89 0.89 0.99 1.04 1.08 1.11 1.21 1.31 1.39 1.52 1.67 1.81 1.90 1.92
0.74 1.20 1.47 1.21 1.12 0.62 0.42 0.26 0.26 0.74 0.97 0.47 0.43 0.46 0.48 0.55 0.65 0.63 0.57 0.54 0.54 0.56 0.62 0.70 0.77 0.81 0.83 0.89 0.93 0.93 0.93 0.96 0.99 1.01 1.06 1.08 1.13 1.24 1.33 1.35 1.41 1.52 1.60 1.62
0.65 0.83 0.86 0.90 1.13 0.77 0.42 0.37 0.67 0.88 0.56 0.46 0.45 0.49 0.56 0.57 0.51 0.51 0.53 0.53 0.51 0.54 0.59 0.68 0.77 0.84 0.86 0.89 0.92 0.91 0.95 1.01 1.00 1.00 1.04 1.08 1.13 1.15 1.20 1.21 1.22 1.24 1.28 1.35
0.62 0.79 0.83 0.83 0.92 0.79 0.64 0.75 0.80 0.70 0.61 0.53 0.52 0.51 0.55 0.60 0.60 0.58 0.60 0.60 0.58 0.57 0.62 0.65 0.70 0.76 0.81 0.89 0.95 0.97 0.98 0.99 1.00 1.02 1.03 1.04 1.04 1.06 1.12 1.16 1.16 1.19 1.22 1.25
0.52 0.53 0.66 0.68 0.67 0.59 0.55 0.54 0.52 0.53 0.58 0.56 0.55 0.55 0.54 0.58 0.61 0.61 0.63 0.65 0.65 0.64 0.63 0.62 0.62 0.66 0.75 0.82 0.88 0.92 0.89 0.89 0.92 0.99 1.00 1.01 0.97 0.99 1.03 1.09 1.14 1.21 1.28 1.26
0.54 0.51 0.58 0.60 0.53 0.43 0.39 0.41 0.42 0.40 0.39 0.40 0.42 0.45 0.50 0.51 0.56 0.59 0.61 0.62 0.64 0.64 0.63 0.60 0.61 0.63 0.70 0.73 0.79 0.87 0.87 0.83 0.85 0.89 0.91 0.93 0.94 0.97 1.04 1.08 1.16 1.25 1.30 1.36
0.58 0.63 0.71 0.68 0.53 0.52 0.48 0.43 0.38 0.36 0.37 0.38 0.39 0.40 0.42 0.46 0.53 0.53 0.55 0.57 0.58 0.60 0.60 0.57 0.56 0.59 0.62 0.64 0.70 0.76 0.81 0.83 0.84 0.85 0.87 0.90 0.91 0.94 1.01 1.07 1.14 1.27 1.32 1.33